Vertical_Velocity
1 1 -3 -1 13 7 -1 -1 1 0 3 1 -1 2 0 3 1 10 -1 -2 3 -0 -3 2 3 -1 -0 1 0 1 -1 2 -0 -0 -1 -1 0 -0 -2 -0 1 -1 -2 -3 -2 -2 -1 -0 1
2 2 -0 1 9 6 -6 -2 -1 -3 1 -2 -1 1 2 1 -0 -1 0 1 -0 -2 2 -3 2 3 0 1 4 -1 -0 2 -2 -2 -1 1 -1 0 0 1 -0 0 1 1 -1 -2 -3 -3 -2
1 0 6 2 1 -1 -3 -1 -1 -1 -3 1 1 -5 0 5 -2 1 -2 -0 5 -1 1 1 1 1 1 3 1 0 4 -0 -1 -0 -0 -1 1 -1 2 3 0 0 -1 0 0 1 2 -0 -3
-1 -1 1 10 -4 -9 -1 -2 -1 -2 -1 -1 -2 2 -2 -2 -0 2 -1 -2 3 0 -3 -4 3 2 4 1 1 1 2 0 -0 -1 1 -3 0 -2 7 7 -1 0 -2 0 0 -2 -2 1 2
-1 0 4 4 -8 -5 -1 -2 0 -1 -1 -2 1 -1 3 -0 -0 -2 0 -1 -2 3 2 -5 -1 -1 -1 2 1 -0 4 -2 1 -1 -0 -0 -1 0 4 -3 -2 3 -1 -2 -1 0 0 -1 -1
6 3 7 0 -5 -3 -1 -1 0 0 -2 -1 3 1 2 -1 1 -1 -1 1 -1 0 4 -1 5 2 3 -1 1 0 -1 -1 -0 1 -1 2 -2 1 4 -0 -1 1 -2 -0 -0 -2 -3 -2 1
5 5 -5 -1 -4 -1 -5 -2 2 0 -1 4 -2 2 1 -2 1 -1 -2 2 -1 -0 -1 4 -0 4 5 5 2 -0 -1 -1 -0 -1 1 -1 0 1 2 1 2 2 -2 0 0 -1 -0 -2 -2
3 5 1 -2 -2 -12 -4 1 -1 3 2 -2 -2 1 4 1 -1 0 -4 0 0 -1 -2 5 2 -0 -2 1 2 -0 -0 1 -2 -1 2 5 1 1 -0 -1 -3 1 -3 -1 0 -0 -1 -1 -1
-5 6 -0 -5 3 -10 -1 2 -1 -2 2 -2 1 3 -2 1 1 1 3 -2 -0 6 -3 2 -2 2 1 -0 -2 1 1 0 1 8 2 1 2 0 0 2 1 -1 0 0 -3 -1 1 0 -0
6 3 -2 -0 -1 -2 -2 5 2 5 1 -2 -0 -1 2 -1 1 1 4 -8 5 2 -2 3 3 1 4 -1 0 -1 -0 -1 10 3 0 -2 -2 2 4 1 3 1 0 -3 -0 1 3 0 -3
-1 1 0 -6 -0 3 -0 0 -2 5 -3 -5 -2 2 -2 2 -2 -3 14 -15 -9 -0 5 -2 1 -1 2 -0 -1 -0 1 6 10 4 -2 1 0 -3 1 -2 0 -1 0 -0 -1 0 3 1 1
6 -1 1 -4 -0 0 -0 2 -2 4 -13 -4 -4 4 7 2 -0 -5 -3 -13 4 2 0 4 2 -1 -0 4 2 2 5 2 3 -3 4 -1 0 -0 1 2 -0 0 1 0 1 -0 -1 2 -2
3 -1 -1 -0 -1 -1 3 -3 -3 -4 -4 -0 -0 4 1 1 5 3 5 6 7 8 0 -3 0 0 -0 -0 3 2 -2 -2 1 1 0 -1 -2 1 3 2 2 3 -1 -1 -3 -0 -1 3 3
1 0 -3 -2 -1 -0 5 -4 3 -2 -5 -1 0 -2 2 3 -4 6 3 -2 -2 5 1 -1 -1 3 1 -0 -0 -2 1 1 -0 2 -3 1 -0 2 2 0 2 -0 1 -0 -1 -5 -5 -4 -3
-1 2 -2 -0 0 -2 1 2 -1 -0 1 -2 -2 2 -1 -0 2 -0 -1 -1 4 1 3 -3 1 2 6 1 6 -1 -0 -4 -1 -1 -1 1 -0 0 1 1 1 -0 2 1 0 0 1 -1 1
2 5 -1 -2 -1 0 8 -12 -3 -2 -0 -2 -2 1 -2 -2 0 -1 2 3 5 -0 4 7 -0 2 -1 3 7 1 3 1 -2 -1 0 0 -1 1 -0 -0 -1 -2 -1 -2 0 1 3 1 -1
0 1 -1 -7 1 0 7 -5 -5 -0 2 -2 -3 -0 2 -1 -4 -2 -3 -0 10 -2 -1 -7 -2 5 2 -7 6 5 4 5 -2 1 -2 1 0 -1 1 2 3 1 3 1 1 -1 1 1 1
-0 -1 -3 2 -4 -2 -3 -6 -5 -2 1 -0 -1 -2 -1 1 2 2 -1 1 1 6 4 -2 1 3 4 1 -1 -2 5 11 5 -2 1 1 1 -1 2 4 -3 -2 -3 -2 -0 3 1 1 -2
3 3 2 -3 -1 6 1 -1 0 -0 -2 -2 -1 -0 3 -2 -0 -2 -1 -3 1 11 7 4 1 1 -6 -4 2 7 -3 6 4 -0 -0 -1 -0 -1 -3 -1 5 5 1 4 4 4 -2 -1 -2
-0 2 -2 -1 -0 5 -1 2 1 -0 3 3 3 -2 -1 -3 5 4 -0 -0 -1 2 -1 3 -1 -2 -1 -1 -8 6 4 2 6 1 -4 -1 -0 0 0 2 -1 5 1 1 -1 3 1 -0 0
-2 3 -1 7 -3 2 -1 5 -1 -2 -3 -2 -3 2 -1 -1 -0 4 0 0 -0 -2 0 0 -2 1 -5 0 1 -5 10 7 7 -0 2 3 2 6 7 0 5 5 4 2 1 2 5 1 -4
1 3 2 1 2 2 2 1 -0 -2 -5 -3 -2 -4 -1 -1 0 0 1 -1 -1 0 0 -3 2 3 10 8 5 16 -9 5 3 4 -2 -2 -6 -5 -7 -0 5 -6 7 6 -0 2 7 6 2
1 2 1 0 0 4 -7 5 9 -3 -9 -6 -5 -3 -2 -1 2 -0 4 2 3 3 0 6 5 -1 8 -5 -0 -1 8 -2 5 5 -4 7 -4 4 -18 -40 -6 -6 -21 8 4 0 -2 1 2
1 -1 1 1 1 3 3 6 -2 1 8 -7 -7 -1 -2 1 1 -1 5 2 2 3 4 -0 3 14 -12 -1 3 4 0 0 0 1 4 2 14 0 10 0 -27 -11 -13 -16 -14 16 4 4 6
-7 -5 -1 0 -3 4 0 1 8 -1 -2 6 3 0 0 1 1 7 5 3 2 0 1 2 4 7 7 2 5 7 7 -12 -8 3 4 1 -6 1 -1 -9 -12 1 -2 -6 2 3 1 1 1
1 4 2 1 1 -1 -2 1 5 4 3 3 5 6 0 -2 5 7 5 4 3 3 1 3 1 2 5 1 1 3 -20 9 -15 -6 2 -5 2 5 1 6 1 8 6 5 1 4 5 1 -4
2 -1 4 0 1 5 2 -3 -4 -5 -4 -4 -1 -2 2 1 1 9 5 10 5 2 3 4 4 3 6 3 -8 -7 -13 1 3 -5 4 5 -1 7 2 4 1 0 3 4 2 -0 6 5 4
6 3 9 1 -1 -2 -1 2 6 -7 -3 -2 -4 0 0 0 1 6 4 4 0 2 5 9 4 4 -4 -2 4 3 9 11 1 8 -6 5 8 6 6 11 3 5 8 -8 2 -11 -13 6 4
3 0 -0 5 2 3 1 8 4 2 2 2 2 2 1 -1 3 4 5 4 -1 5 -3 -3 -1 -4 -2 1 1 -3 -2 1 2 0 2 2 -2 1 0 6 -1 -4 1 -2 5 3 6 4 2
1 1 1 4 1 1 3 6 1 1 1 1 1 2 0 5 1 5 3 4 -2 3 6 0 6 3 6 4 -3 3 7 -1 -0 2 1 -0 -1 0 3 -0 2 2 4 3 3 4 4 1 -1
Height
1521 1522 1523 1525 1526 1517 1512 1510 1506 1507 1504 1506 1505 1504 1501 1499 1498 1504 1504 1506 1511 1513 1520 1522 1524 1527 1530 1532 1534 1535 1537 1538 1540 1541 1542 1543 1543 1543 1544 1545 1544 1545 1544 1544 1544 1543 1542 1541 1541
1520 1521 1523 1524 1522 1517 1506 1502 1507 1503 1507 1506 1506 1505 1504 1498 1505 1504 1506 1506 1509 1515 1520 1524 1526 1528 1530 1533 1534 1536 1538 1539 1540 1541 1543 1544 1544 1545 1546 1546 1546 1547 1546 1546 1546 1545 1544 1544 1544
1519 1521 1523 1517 1511 1511 1507 1503 1501 1505 1507 1506 1504 1505 1504 1504 1505 1505 1505 1507 1511 1516 1520 1524 1525 1529 1531 1533 1535 1537 1538 1540 1540 1542 1543 1544 1545 1546 1548 1548 1548 1549 1549 1549 1548 1548 1547 1546 1546
1520 1523 1521 1513 1505 1503 1501 1500 1506 1505 1504 1505 1505 1501 1506 1505 1506 1506 1504 1510 1515 1517 1521 1523 1526 1529 1531 1533 1536 1537 1539 1540 1541 1542 1544 1544 1546 1547 1549 1549 1550 1550 1550 1551 1551 1550 1550 1549 1548
1520 1519 1512 1509 1502 1498 1504 1505 1505 1504 1503 1503 1503 1499 1504 1505 1504 1504 1507 1511 1517 1520 1522 1523 1526 1529 1531 1534 1536 1538 1539 1540 1542 1543 1544 1545 1547 1548 1549 1550 1552 1552 1551 1552 1553 1552 1552 1551 1551
1518 1516 1511 1506 1500 1498 1503 1503 1504 1503 1502 1502 1502 1501 1503 1503 1504 1505 1509 1513 1517 1521 1523 1524 1526 1529 1532 1533 1536 1538 1539 1540 1542 1544 1545 1546 1548 1549 1550 1550 1552 1553 1553 1554 1554 1554 1554 1553 1553
1514 1512 1506 1501 1501 1502 1503 1504 1501 1499 1501 1500 1504 1499 1504 1504 1503 1506 1511 1515 1517 1522 1525 1525 1527 1529 1532 1534 1536 1538 1539 1541 1542 1544 1546 1547 1549 1550 1552 1552 1553 1554 1554 1555 1555 1555 1555 1554 1555
1516 1513 1507 1505 1506 1503 1501 1502 1506 1504 1502 1505 1503 1498 1501 1505 1503 1507 1510 1514 1517 1521 1525 1526 1527 1530 1533 1534 1536 1538 1539 1540 1542 1545 1547 1548 1550 1551 1552 1554 1553 1555 1555 1556 1556 1557 1556 1556 1556
1516 1513 1507 1506 1507 1503 1503 1503 1504 1506 1504 1504 1504 1504 1505 1505 1502 1507 1508 1511 1517 1519 1523 1524 1527 1530 1532 1536 1536 1537 1539 1541 1543 1545 1548 1549 1551 1552 1553 1555 1554 1556 1556 1556 1558 1558 1558 1558 1558
1513 1510 1505 1506 1506 1505 1504 1504 1503 1505 1501 1501 1502 1504 1504 1504 1504 1505 1503 1510 1514 1516 1520 1523 1526 1531 1533 1535 1535 1538 1540 1541 1542 1546 1549 1550 1552 1555 1555 1554 1555 1557 1556 1558 1559 1560 1560 1561 1561
1514 1509 1508 1507 1506 1506 1505 1504 1503 1502 1500 1501 1501 1501 1503 1503 1503 1505 1505 1506 1512 1515 1518 1521 1525 1528 1531 1532 1534 1537 1540 1539 1542 1545 1550 1550 1552 1552 1555 1555 1557 1558 1557 1560 1561 1562 1563 1563 1565
1512 1511 1510 1507 1507 1507 1504 1503 1500 1500 1499 1499 1499 1499 1499 1502 1500 1501 1503 1505 1509 1511 1514 1519 1522 1525 1528 1531 1533 1535 1536 1538 1542 1546 1548 1548 1551 1554 1555 1556 1558 1558 1559 1560 1562 1563 1564 1565 1566
1511 1509 1509 1507 1506 1505 1503 1501 1499 1496 1496 1495 1495 1496 1496 1497 1499 1498 1501 1504 1507 1508 1510 1515 1518 1521 1525 1529 1531 1532 1533 1537 1541 1544 1546 1547 1549 1552 1554 1555 1556 1558 1558 1561 1563 1565 1567 1568 1569
1511 1510 1506 1505 1503 1502 1501 1497 1497 1492 1493 1491 1491 1492 1492 1493 1495 1497 1497 1500 1503 1506 1508 1512 1515 1519 1522 1526 1528 1529 1532 1535 1539 1541 1544 1546 1549 1551 1553 1555 1556 1557 1559 1562 1563 1566 1568 1569 1570
1510 1506 1500 1499 1499 1499 1498 1492 1491 1490 1490 1489 1488 1488 1489 1488 1490 1491 1493 1494 1499 1503 1506 1509 1513 1518 1519 1524 1527 1527 1530 1534 1537 1539 1542 1544 1547 1550 1552 1554 1556 1558 1560 1563 1565 1567 1567 1569 1570
1506 1504 1500 1495 1498 1497 1498 1489 1484 1489 1489 1487 1486 1484 1485 1485 1485 1487 1489 1491 1495 1498 1502 1507 1509 1513 1517 1521 1525 1527 1529 1532 1534 1538 1541 1543 1545 1548 1551 1553 1555 1558 1560 1563 1564 1566 1568 1569 1571
1503 1504 1501 1498 1496 1498 1496 1489 1485 1487 1485 1484 1483 1481 1481 1481 1482 1483 1484 1487 1490 1492 1497 1500 1508 1510 1513 1517 1522 1525 1528 1529 1532 1536 1539 1541 1544 1547 1550 1552 1554 1557 1560 1563 1565 1566 1568 1570 1571
1507 1503 1500 1498 1493 1493 1491 1487 1485 1486 1484 1481 1479 1477 1477 1478 1478 1480 1481 1483 1486 1488 1494 1499 1506 1506 1510 1513 1519 1522 1527 1529 1530 1534 1537 1540 1543 1545 1550 1551 1554 1557 1560 1562 1564 1566 1566 1569 1571
1507 1504 1499 1493 1493 1496 1490 1489 1486 1487 1483 1481 1478 1476 1474 1475 1476 1476 1478 1480 1482 1485 1488 1493 1497 1502 1506 1510 1515 1518 1523 1525 1527 1531 1535 1538 1542 1544 1548 1551 1553 1556 1559 1562 1564 1565 1565 1566 1569
1503 1500 1494 1492 1495 1495 1493 1489 1488 1485 1484 1483 1480 1477 1475 1473 1472 1474 1475 1478 1480 1483 1485 1488 1493 1499 1503 1507 1513 1517 1519 1523 1526 1528 1533 1537 1541 1543 1546 1550 1553 1556 1558 1560 1563 1565 1564 1565 1567
1498 1501 1500 1499 1494 1495 1491 1484 1483 1481 1483 1482 1480 1476 1472 1471 1469 1471 1471 1474 1477 1480 1482 1487 1490 1495 1500 1503 1510 1515 1517 1521 1523 1525 1529 1534 1538 1541 1543 1547 1551 1555 1557 1560 1563 1565 1564 1563 1566
1501 1500 1500 1497 1493 1494 1495 1481 1476 1480 1483 1484 1478 1476 1471 1468 1466 1467 1468 1469 1473 1475 1479 1482 1486 1492 1495 1499 1504 1509 1510 1515 1517 1520 1523 1528 1532 1535 1537 1541 1547 1551 1555 1558 1561 1565 1565 1563 1564
1501 1501 1498 1497 1494 1493 1491 1495 1481 1488 1490 1483 1479 1475 1470 1466 1463 1462 1465 1466 1469 1473 1476 1481 1485 1487 1493 1493 1501 1506 1511 1511 1513 1515 1518 1519 1524 1528 1529 1535 1542 1545 1547 1552 1558 1563 1562 1564 1563
1504 1499 1499 1498 1494 1481 1498 1503 1483 1502 1501 1490 1481 1475 1471 1466 1461 1459 1461 1462 1466 1471 1475 1478 1482 1487 1485 1497 1501 1505 1507 1507 1509 1509 1510 1512 1514 1519 1525 1528 1536 1543 1547 1550 1554 1558 1559 1560 1560
1501 1492 1498 1493 1497 1494 1493 1493 1500 1504 1499 1493 1483 1477 1472 1468 1462 1459 1460 1462 1466 1470 1474 1478 1482 1485 1490 1495 1500 1503 1504 1505 1507 1508 1508 1510 1515 1516 1519 1526 1532 1539 1545 1550 1553 1554 1555 1556 1558
1511 1510 1516 1520 1508 1507 1497 1506 1502 1506 1497 1492 1486 1481 1476 1470 1465 1460 1460 1463 1467 1471 1474 1477 1481 1487 1491 1497 1500 1501 1506 1503 1502 1507 1509 1511 1512 1517 1523 1525 1533 1539 1543 1545 1548 1550 1552 1552 1554
1508 1511 1518 1524 1521 1512 1502 1488 1502 1502 1493 1491 1487 1482 1478 1472 1467 1464 1465 1467 1470 1473 1476 1479 1484 1489 1494 1497 1499 1503 1503 1507 1504 1509 1513 1515 1517 1519 1522 1528 1533 1538 1540 1542 1543 1546 1549 1549 1549
1513 1518 1511 1510 1521 1511 1489 1492 1506 1502 1495 1494 1490 1487 1484 1480 1474 1471 1470 1472 1474 1477 1480 1484 1488 1493 1495 1499 1503 1506 1509 1510 1511 1512 1515 1517 1518 1519 1521 1526 1530 1534 1535 1535 1542 1543 1544 1546 1544
1512 1510 1512 1513 1512 1511 1498 1496 1501 1501 1502 1499 1497 1495 1491 1486 1482 1479 1477 1478 1481 1482 1484 1489 1494 1496 1500 1503 1506 1508 1511 1511 1512 1511 1513 1515 1516 1517 1522 1526 1529 1531 1535 1538 1540 1540 1541 1541 1541
1517 1515 1513 1511 1511 1510 1510 1496 1502 1504 1505 1503 1501 1500 1497 1494 1491 1488 1485 1485 1487 1487 1490 1494 1497 1501 1503 1505 1508 1509 1510 1512 1512 1513 1515 1517 1519 1520 1523 1527 1529 1532 1535 1536 1537 1537 1538 1538 1538